Tracking 26911 objects as of 8-Feb-2023
HD Live streaming from Space Station
objects crossing your sky now

SL-8 R/B

Track SL-8 R/B now!
10-day predictions


NORAD ID: 18945
Int'l Code: 1988-016J
Perigee: 1,471.2 km
Apogee: 1,693.2 km
Inclination: 74.0 °
Period: 117.6 minutes
Semi major axis: 7953 km
RCS: 6.0441 m2 (large)
Launch date: March 11, 1988
Source: Commonwealth of Independent States (former USSR) (CIS)
Launch site: PLESETSK MISSILE AND SPACE COMPLEX (PKMTR)

Note: This is a ROCKET BODY
Your satellite tracking list
Your tracking list is empty




NASA's NSSDC Master Catalog

Two Line Element Set (TLE):
1 18945U 88016J   23038.94372729 -.00000104  00000-0 -79518-3 0  9999
2 18945  74.0048 222.3792 0139567  47.6492  61.6705 12.24013748559996
Source of the keplerian elements: AFSPC